Time,TemperatureF,DewpointF,PressureIn,WindDirection,WindDirectionDegrees,WindSpeedMPH,WindSpeedGustMPH,Humidity,HourlyPrecipIn,Conditions,Clouds,dailyrainin,SoftwareType,DateUTC
2013-02-26 00:00:00,32.5,25.5,30.21,North,8,0.0,0.0,75,0.00,OVC,,0.00,WeatherDisplay:10.37,2013-02-26 05:00:00,
2013-02-26 00:01:00,32.3,25.3,30.21,North,8,0.0,0.0,75,0.00,OVC,,0.00,WeatherDisplay:10.37,2013-02-26 05:01:00,
2013-02-26 00:02:00,32.3,25.6,30.21,North,8,0.0,0.0,76,0.00,BKN,,0.00,WeatherDisplay:10.37,2013-02-26 05:02:00,
2013-02-26 00:03:00,32.5,25.8,30.21,North,8,0.0,0.0,76,0.00,BKN,,0.00,WeatherDisplay:10.37,2013-02-26 05:03:00,
2013-02-26 00:08:00,32.4,26.0,30.21,North,8,0.0,0.0,77,0.00,BKN,,0.00,WeatherDisplay:10.37,2013-02-26 05:08:00,
2013-02-26 00:13:00,32.3,25.9,30.22,North,8,0.0,0.0,77,0.00,BKN,,0.00,WeatherDisplay:10.37,2013-02-26 05:13:00,
2013-02-26 00:18:00,32.0,25.6,30.22,North,8,0.0,0.0,77,0.00,BKN,,0.00,WeatherDisplay:10.37,2013-02-26 05:18:00,
2013-02-26 00:23:00,31.7,25.4,30.22,North,8,0.0,0.0,77,0.00,BKN,,0.00,WeatherDisplay:10.37,2013-02-26 05:23:00,
2013-02-26 00:28:00,31.5,25.5,30.22,North,8,0.0,0.0,78,0.00,BKN,,0.00,WeatherDisplay:10.37,2013-02-26 05:28:00,
2013-02-26 00:33:00,31.3,25.6,30.22,North,8,0.0,0.0,79,0.00,BKN,,0.00,WeatherDisplay:10.37,2013-02-26 05:33:00,
2013-02-26 00:38:00,31.2,25.5,30.22,North,8,0.0,0.0,79,0.00,BKN,,0.00,WeatherDisplay:10.37,2013-02-26 05:38:00,
2013-02-26 00:43:00,30.9,25.5,30.22,North,8,0.0,0.0,80,0.00,BKN,,0.00,WeatherDisplay:10.37,2013-02-26 05:43:00,
2013-02-26 00:48:00,30.7,25.3,30.22,North,8,0.0,0.0,80,0.00,BKN,,0.00,WeatherDisplay:10.37,2013-02-26 05:48:00,
2013-02-26 00:53:00,30.3,24.9,30.22,North,8,0.0,0.0,80,0.00,BKN,,0.00,WeatherDisplay:10.37,2013-02-26 05:53:00,
2013-02-26 00:58:00,30.1,24.7,30.21,North,8,0.0,0.0,80,0.00,BKN,,0.00,WeatherDisplay:10.37,2013-02-26 05:58:00,
2013-02-26 01:03:00,30.1,24.7,30.21,North,8,0.0,0.0,80,0.00,BKN,,0.00,WeatherDisplay:10.37,2013-02-26 06:03:00,
2013-02-26 01:08:00,30.1,24.7,30.21,North,8,0.0,0.0,80,0.00,BKN,,0.00,WeatherDisplay:10.37,2013-02-26 06:08:00,
2013-02-26 01:13:00,30.1,24.7,30.21,North,8,0.0,0.0,80,0.00,BKN,,0.00,WeatherDisplay:10.37,2013-02-26 06:13:00,
2013-02-26 01:18:00,30.2,24.5,30.21,North,8,0.0,0.0,79,0.00,CLR,,0.00,WeatherDisplay:10.37,2013-02-26 06:18:00,
2013-02-26 01:23:00,29.9,24.5,30.21,North,8,0.0,0.0,80,0.00,CLR,,0.00,WeatherDisplay:10.37,2013-02-26 06:23:00,
2013-02-26 01:28:00,29.8,24.4,30.22,North,8,0.0,0.0,80,0.00,CLR,,0.00,WeatherDisplay:10.37,2013-02-26 06:28:00,
2013-02-26 01:33:00,29.8,24.4,30.22,North,8,0.0,0.0,80,0.00,CLR,,0.00,WeatherDisplay:10.37,2013-02-26 06:33:00,
2013-02-26 01:38:00,29.6,24.5,30.22,North,8,0.0,0.0,81,0.00,CLR,,0.00,WeatherDisplay:10.37,2013-02-26 06:38:00,
2013-02-26 01:43:00,29.6,24.5,30.23,North,8,0.0,0.0,81,0.00,CLR,,0.00,WeatherDisplay:10.37,2013-02-26 06:43:00,
2013-02-26 01:48:00,29.7,24.6,30.24,WNW,302,4.6,4.7,81,0.00,CLR,,0.00,WeatherDisplay:10.37,2013-02-26 06:48:00,
2013-02-26 01:53:00,29.6,24.8,30.25,NW,304,5.8,5.8,82,0.00,CLR,,0.00,WeatherDisplay:10.37,2013-02-26 06:53:00,
2013-02-26 01:58:00,29.6,24.8,30.25,WNW,294,0.0,0.0,82,0.00,CLR,,0.00,WeatherDisplay:10.37,2013-02-26 06:58:00,
2013-02-26 02:03:00,29.7,24.9,30.25,WNW,294,0.0,0.0,82,0.00,CLR,,0.00,WeatherDisplay:10.37,2013-02-26 07:03:00,
2013-02-26 02:08:00,29.6,24.8,30.25,WNW,294,0.0,0.0,82,0.00,CLR,,0.00,WeatherDisplay:10.37,2013-02-26 07:08:00,
2013-02-26 02:13:00,29.7,24.9,30.26,WNW,294,0.0,0.0,82,0.00,CLR,,0.00,WeatherDisplay:10.37,2013-02-26 07:13:00,
2013-02-26 02:18:00,29.7,24.9,30.26,WNW,294,0.0,0.0,82,0.00,CLR,,0.00,WeatherDisplay:10.37,2013-02-26 07:18:00,
2013-02-26 02:23:00,29.6,24.5,30.26,WNW,294,0.0,0.0,81,0.00,CLR,,0.00,WeatherDisplay:10.37,2013-02-26 07:23:00,
2013-02-26 02:28:00,29.6,24.5,30.26,WNW,294,0.0,0.0,81,0.00,CLR,,0.00,WeatherDisplay:10.37,2013-02-26 07:28:00,
2013-02-26 02:33:00,29.5,24.4,30.26,WNW,294,0.0,0.0,81,0.00,CLR,,0.00,WeatherDisplay:10.37,2013-02-26 07:33:00,
2013-02-26 02:38:00,29.7,24.6,30.26,WNW,294,0.0,0.0,81,0.00,CLR,,0.00,WeatherDisplay:10.37,2013-02-26 07:38:00,
2013-02-26 02:43:00,29.7,24.6,30.26,WNW,294,0.0,0.0,81,0.00,CLR,,0.00,WeatherDisplay:10.37,2013-02-26 07:43:00,
2013-02-26 02:48:00,29.7,24.6,30.26,WNW,294,0.0,0.0,81,0.00,CLR,,0.00,WeatherDisplay:10.37,2013-02-26 07:48:00,
2013-02-26 02:53:00,29.6,24.5,30.26,WNW,294,0.0,0.0,81,0.00,CLR,,0.00,WeatherDisplay:10.37,2013-02-26 07:53:00,
2013-02-26 02:58:00,29.4,24.3,30.25,WNW,294,0.0,0.0,81,0.00,CLR,,0.00,WeatherDisplay:10.37,2013-02-26 07:58:00,
2013-02-26 03:03:00,29.3,24.2,30.25,WNW,294,0.0,0.0,81,0.00,CLR,,0.00,WeatherDisplay:10.37,2013-02-26 08:03:00,
2013-02-26 03:08:00,29.2,24.1,30.25,WNW,294,0.0,0.0,81,0.00,CLR,,0.00,WeatherDisplay:10.37,2013-02-26 08:08:00,
2013-02-26 03:13:00,29.1,24.3,30.26,WNW,294,0.0,0.0,82,0.00,CLR,,0.00,WeatherDisplay:10.37,2013-02-26 08:13:00,
2013-02-26 03:18:00,29.0,24.2,30.26,WNW,294,0.0,0.0,82,0.00,CLR,,0.00,WeatherDisplay:10.37,2013-02-26 08:18:00,
2013-02-26 03:23:00,28.8,24.0,30.26,WNW,294,0.0,0.0,82,0.00,CLR,,0.00,WeatherDisplay:10.37,2013-02-26 08:23:00,
2013-02-26 03:28:00,28.6,23.8,30.26,WNW,294,0.0,0.0,82,0.00,CLR,,0.00,WeatherDisplay:10.37,2013-02-26 08:28:00,
2013-02-26 03:33:00,28.5,23.7,30.26,WNW,294,0.0,0.0,82,0.00,CLR,,0.00,WeatherDisplay:10.37,2013-02-26 08:33:00,
2013-02-26 03:38:00,28.5,24.0,30.25,WNW,294,0.0,0.0,83,0.00,CLR,,0.00,WeatherDisplay:10.37,2013-02-26 08:38:00,
2013-02-26 03:43:00,28.6,24.1,30.25,WNW,294,0.0,0.0,83,0.00,CLR,,0.00,WeatherDisplay:10.37,2013-02-26 08:43:00,
2013-02-26 03:48:00,28.6,24.4,30.25,WNW,294,0.0,0.0,84,0.00,CLR,,0.00,WeatherDisplay:10.37,2013-02-26 08:48:00,
2013-02-26 03:53:00,28.7,24.2,30.25,WNW,294,0.0,0.0,83,0.00,CLR,,0.00,WeatherDisplay:10.37,2013-02-26 08:53:00,
2013-02-26 03:58:00,28.4,23.9,30.26,WNW,294,0.0,0.0,83,0.00,CLR,,0.00,WeatherDisplay:10.37,2013-02-26 08:58:00,
2013-02-26 04:03:00,28.2,24.0,30.26,WNW,294,0.0,0.0,84,0.00,CLR,,0.00,WeatherDisplay:10.37,2013-02-26 09:03:00,
2013-02-26 04:08:00,28.0,23.8,30.26,WNW,294,0.0,0.0,84,0.00,CLR,,0.00,WeatherDisplay:10.37,2013-02-26 09:08:00,
2013-02-26 04:13:00,27.8,23.6,30.26,WNW,294,0.0,0.0,84,0.00,CLR,,0.00,WeatherDisplay:10.37,2013-02-26 09:13:00,
2013-02-26 04:18:00,27.6,23.7,30.26,WNW,294,0.0,0.0,85,0.00,CLR,,0.00,WeatherDisplay:10.37,2013-02-26 09:18:00,
2013-02-26 04:23:00,27.6,23.7,30.26,WNW,294,0.0,0.0,85,0.00,CLR,,0.00,WeatherDisplay:10.37,2013-02-26 09:23:00,
2013-02-26 04:28:00,27.3,23.4,30.26,WNW,294,0.0,0.0,85,0.00,CLR,,0.00,WeatherDisplay:10.37,2013-02-26 09:28:00,
2013-02-26 04:33:00,27.3,23.7,30.26,WNW,294,0.0,0.0,86,0.00,CLR,,0.00,WeatherDisplay:10.37,2013-02-26 09:33:00,
2013-02-26 04:38:00,27.3,23.7,30.26,WNW,294,0.0,0.0,86,0.00,CLR,,0.00,WeatherDisplay:10.37,2013-02-26 09:38:00,
2013-02-26 04:43:00,27.2,23.6,30.26,WNW,294,0.0,0.0,86,0.00,CLR,,0.00,WeatherDisplay:10.37,2013-02-26 09:43:00,
2013-02-26 04:48:00,27.2,23.9,30.27,WNW,294,0.0,0.0,87,0.00,CLR,,0.00,WeatherDisplay:10.37,2013-02-26 09:48:00,
2013-02-26 04:53:00,27.3,24.0,30.27,WNW,294,0.0,0.0,87,0.00,CLR,,0.00,WeatherDisplay:10.37,2013-02-26 09:53:00,
2013-02-26 04:58:00,27.3,24.0,30.27,WNW,294,0.0,0.0,87,0.00,CLR,,0.00,WeatherDisplay:10.37,2013-02-26 09:58:00,
2013-02-26 05:03:00,27.2,23.9,30.27,WNW,294,0.0,0.0,87,0.00,CLR,,0.00,WeatherDisplay:10.37,2013-02-26 10:03:00,
2013-02-26 05:08:00,27.1,23.8,30.27,WNW,294,0.0,0.0,87,0.00,CLR,,0.00,WeatherDisplay:10.37,2013-02-26 10:08:00,
2013-02-26 05:13:00,27.1,24.1,30.27,WNW,294,0.0,0.0,88,0.00,CLR,,0.00,WeatherDisplay:10.37,2013-02-26 10:13:00,
2013-02-26 05:18:00,27.1,24.1,30.28,WNW,294,0.0,0.0,88,0.00,CLR,,0.00,WeatherDisplay:10.37,2013-02-26 10:18:00,
2013-02-26 05:23:00,27.1,24.1,30.28,WNW,294,0.0,0.0,88,0.00,CLR,,0.00,WeatherDisplay:10.37,2013-02-26 10:23:00,
2013-02-26 05:28:00,27.1,24.1,30.28,WNW,294,0.0,0.0,88,0.00,CLR,,0.00,WeatherDisplay:10.37,2013-02-26 10:28:00,
2013-02-26 05:33:00,27.1,24.1,30.28,WNW,294,0.0,0.0,88,0.00,CLR,,0.00,WeatherDisplay:10.37,2013-02-26 10:33:00,
2013-02-26 05:38:00,27.2,24.2,30.28,WNW,294,0.0,0.0,88,0.00,CLR,,0.00,WeatherDisplay:10.37,2013-02-26 10:38:00,
2013-02-26 05:43:00,27.4,24.4,30.28,WNW,294,0.0,0.0,88,0.00,CLR,,0.00,WeatherDisplay:10.37,2013-02-26 10:43:00,
2013-02-26 05:48:00,27.2,24.2,30.27,WNW,294,0.0,0.0,88,0.00,CLR,,0.00,WeatherDisplay:10.37,2013-02-26 10:48:00,
2013-02-26 05:53:00,27.2,24.2,30.27,WNW,294,0.0,0.0,88,0.00,CLR,,0.00,WeatherDisplay:10.37,2013-02-26 10:53:00,
2013-02-26 05:58:00,27.2,24.2,30.26,WNW,294,0.0,0.0,88,0.00,CLR,,0.00,WeatherDisplay:10.37,2013-02-26 10:58:00,
2013-02-26 06:03:00,27.0,24.0,30.27,WNW,294,0.0,0.0,88,0.00,CLR,,0.00,WeatherDisplay:10.37,2013-02-26 11:03:00,
2013-02-26 06:08:00,27.0,24.0,30.26,WNW,294,0.0,0.0,88,0.00,CLR,,0.00,WeatherDisplay:10.37,2013-02-26 11:08:00,
2013-02-26 06:13:00,26.9,23.9,30.27,WNW,294,0.0,0.0,88,0.00,CLR,,0.00,WeatherDisplay:10.37,2013-02-26 11:13:00,
2013-02-26 06:18:00,26.8,24.0,30.27,WNW,294,0.0,0.0,89,0.00,CLR,,0.00,WeatherDisplay:10.37,2013-02-26 11:18:00,
2013-02-26 06:23:00,26.8,24.0,30.27,WNW,284,3.5,3.5,89,0.00,CLR,,0.00,WeatherDisplay:10.37,2013-02-26 11:23:00,
2013-02-26 06:28:00,26.8,24.0,30.27,NW,322,3.5,3.5,89,0.00,CLR,,0.00,WeatherDisplay:10.37,2013-02-26 11:28:00,
2013-02-26 06:33:00,26.9,24.1,30.26,NW,304,4.5,4.5,89,0.00,CLR,,0.00,WeatherDisplay:10.37,2013-02-26 11:33:00,
2013-02-26 06:38:00,27.1,24.3,30.27,NW,305,4.6,4.6,89,0.00,CLR,,0.00,WeatherDisplay:10.37,2013-02-26 11:38:00,
2013-02-26 06:43:00,27.2,24.4,30.26,NW,305,4.6,4.6,89,0.00,CLR,,0.00,WeatherDisplay:10.37,2013-02-26 11:43:00,
2013-02-26 06:48:00,27.4,24.6,30.27,NW,312,3.5,3.5,89,0.00,CLR,,0.00,WeatherDisplay:10.37,2013-02-26 11:48:00,
2013-02-26 06:53:00,27.5,24.7,30.26,NW,312,0.0,0.0,89,0.00,CLR,,0.00,WeatherDisplay:10.37,2013-02-26 11:53:00,
2013-02-26 06:59:00,27.6,24.6,30.27,North,0,0.0,0.0,88,0.00,CLR,,0.00,WeatherDisplay:10.37,2013-02-26 11:59:00,
2013-02-26 07:04:00,27.6,24.6,30.27,North,0,0.0,0.0,88,0.00,OVC,,0.00,WeatherDisplay:10.37,2013-02-26 12:04:00,
2013-02-26 07:10:00,27.8,24.7,30.26,WNW,287,3.5,3.5,88,0.00,OVC,,0.00,WeatherDisplay:10.37,2013-02-26 12:10:00,
2013-02-26 07:15:00,27.8,24.7,30.26,NW,306,3.5,3.5,88,0.00,OVC,,0.00,WeatherDisplay:10.37,2013-02-26 12:15:00,
2013-02-26 07:20:00,27.9,24.8,30.26,WNW,291,4.6,4.6,88,0.00,OVC,,0.00,WeatherDisplay:10.37,2013-02-26 12:20:00,
2013-02-26 07:25:00,28.4,25.3,30.26,WNW,285,0.0,0.0,88,0.00,OVC,,0.00,WeatherDisplay:10.37,2013-02-26 12:25:00,
2013-02-26 07:30:00,28.7,25.4,30.26,WNW,285,0.0,0.0,87,0.00,OVC,,0.00,WeatherDisplay:10.37,2013-02-26 12:30:00,
2013-02-26 07:35:00,29.0,25.7,30.26,WNW,285,0.0,0.0,87,0.00,OVC,,0.00,WeatherDisplay:10.37,2013-02-26 12:35:00,
2013-02-26 07:40:00,29.2,25.9,30.26,WNW,285,0.0,0.0,87,0.00,OVC,,0.00,WeatherDisplay:10.37,2013-02-26 12:40:00,
2013-02-26 07:45:00,29.3,25.7,30.26,WNW,294,3.5,3.5,86,0.00,OVC,,0.00,WeatherDisplay:10.37,2013-02-26 12:45:00,
2013-02-26 07:50:00,29.4,25.8,30.26,NW,308,5.8,5.8,86,0.00,OVC,,0.00,WeatherDisplay:10.37,2013-02-26 12:50:00,
2013-02-26 07:55:00,29.6,25.7,30.27,NW,308,0.0,0.0,85,0.00,OVC,,0.00,WeatherDisplay:10.37,2013-02-26 12:55:00,
2013-02-26 08:00:00,29.8,25.9,30.27,WNW,299,5.8,5.8,85,0.00,OVC,,0.00,WeatherDisplay:10.37,2013-02-26 13:00:00,
2013-02-26 08:05:00,30.1,25.9,30.27,NW,308,0.0,0.0,84,0.00,OVC,,0.00,WeatherDisplay:10.37,2013-02-26 13:05:00,
2013-02-26 08:10:00,30.2,26.0,30.28,NW,308,0.0,0.0,84,0.00,OVC,,0.00,WeatherDisplay:10.37,2013-02-26 13:10:00,
2013-02-26 08:15:00,30.5,26.0,30.28,NW,308,0.0,0.0,83,0.00,OVC,,0.00,WeatherDisplay:10.37,2013-02-26 13:15:00,
2013-02-26 08:20:00,30.8,26.3,30.28,NW,308,0.0,0.0,83,0.00,OVC,,0.00,WeatherDisplay:10.37,2013-02-26 13:20:00,
2013-02-26 08:25:00,31.2,26.4,30.28,NW,308,0.0,0.0,82,0.00,OVC,,0.00,WeatherDisplay:10.37,2013-02-26 13:25:00,
2013-02-26 08:30:00,31.6,26.8,30.27,NW,308,0.0,0.0,82,0.00,OVC,,0.00,WeatherDisplay:10.37,2013-02-26 13:30:00,
2013-02-26 08:36:00,32.3,27.2,30.27,NW,308,0.0,0.0,81,0.00,OVC,,0.00,WeatherDisplay:10.37,2013-02-26 13:36:00,
2013-02-26 08:41:00,32.9,27.4,30.27,NW,308,0.0,0.0,80,0.00,OVC,,0.00,WeatherDisplay:10.37,2013-02-26 13:41:00,
2013-02-26 08:46:00,34.0,28.2,30.26,NW,308,0.0,0.0,79,0.00,OVC,,0.00,WeatherDisplay:10.37,2013-02-26 13:46:00,
2013-02-26 08:51:00,34.8,28.4,30.26,NW,308,0.0,0.0,77,0.00,OVC,,0.00,WeatherDisplay:10.37,2013-02-26 13:51:00,
2013-02-26 08:56:00,35.3,28.8,30.26,NW,308,0.0,0.0,77,0.00,OVC,,0.00,WeatherDisplay:10.37,2013-02-26 13:56:00,
2013-02-26 09:01:00,35.8,28.7,30.27,NW,308,0.0,0.0,75,0.00,OVC,,0.00,WeatherDisplay:10.37,2013-02-26 14:01:00,
2013-02-26 09:06:00,36.4,28.9,30.27,NW,308,0.0,0.0,74,0.00,OVC,,0.00,WeatherDisplay:10.37,2013-02-26 14:06:00,
2013-02-26 09:11:00,36.6,28.8,30.27,NW,308,0.0,0.0,73,0.00,OVC,,0.00,WeatherDisplay:10.37,2013-02-26 14:11:00,
2013-02-26 09:16:00,36.9,28.8,30.28,NW,308,0.0,0.0,72,0.00,OVC,,0.00,WeatherDisplay:10.37,2013-02-26 14:16:00,
2013-02-26 09:21:00,37.5,29.0,30.28,NW,308,0.0,0.0,71,0.00,OVC,,0.00,WeatherDisplay:10.37,2013-02-26 14:21:00,
2013-02-26 09:26:00,38.4,28.8,30.28,NE,56,0.0,0.0,68,0.00,OVC,,0.00,WeatherDisplay:10.37,2013-02-26 14:26:00,
2013-02-26 09:31:00,38.8,28.8,30.28,South,174,8.1,8.1,67,0.00,OVC,,0.00,WeatherDisplay:10.37,2013-02-26 14:31:00,
2013-02-26 09:36:00,39.2,28.1,30.27,South,184,3.5,3.5,64,0.00,OVC,,0.00,WeatherDisplay:10.37,2013-02-26 14:36:00,
2013-02-26 09:41:00,39.4,28.3,30.28,SE,127,0.0,0.0,64,0.00,OVC,,0.00,WeatherDisplay:10.37,2013-02-26 14:41:00,
2013-02-26 09:46:00,39.2,26.9,30.27,SE,143,4.6,4.6,61,0.00,OVC,,0.00,WeatherDisplay:10.37,2013-02-26 14:46:00,
2013-02-26 09:51:00,39.3,27.4,30.27,ESE,114,5.7,5.7,62,0.00,OVC,,0.00,WeatherDisplay:10.37,2013-02-26 14:51:00,
2013-02-26 09:56:00,39.0,27.1,30.26,East,86,4.6,0.0,62,0.00,OVC,,0.00,WeatherDisplay:10.37,2013-02-26 14:56:00,
2013-02-26 10:01:00,39.3,27.4,30.26,East,86,0.0,0.0,62,0.00,OVC,,0.00,WeatherDisplay:10.37,2013-02-26 15:01:00,
2013-02-26 10:06:00,39.3,28.2,30.26,East,86,0.0,0.0,64,0.00,OVC,,0.00,WeatherDisplay:10.37,2013-02-26 15:06:00,
2013-02-26 10:11:00,39.4,26.7,30.26,East,99,4.6,4.6,60,0.00,OVC,,0.00,WeatherDisplay:10.37,2013-02-26 15:11:00,
2013-02-26 10:16:00,39.6,27.3,30.26,East,99,0.0,0.0,61,0.00,OVC,,0.00,WeatherDisplay:10.37,2013-02-26 15:16:00,
2013-02-26 10:21:00,39.5,26.8,30.26,SE,136,5.8,5.8,60,0.00,OVC,,0.00,WeatherDisplay:10.37,2013-02-26 15:21:00,
2013-02-26 10:26:00,39.6,27.7,30.26,SE,136,0.0,0.0,62,0.00,OVC,,0.00,WeatherDisplay:10.37,2013-02-26 15:26:00,
2013-02-26 10:31:00,39.7,27.0,30.26,SE,133,6.9,6.9,60,0.00,OVC,,0.00,WeatherDisplay:10.37,2013-02-26 15:31:00,
2013-02-26 10:36:00,40.0,26.9,30.26,SE,124,2.3,0.0,59,0.00,OVC,,0.00,WeatherDisplay:10.37,2013-02-26 15:36:00,
2013-02-26 10:42:00,40.0,26.4,30.25,SE,124,0.0,0.0,58,0.00,OVC,,0.00,WeatherDisplay:10.37,2013-02-26 15:42:00,
2013-02-26 10:47:00,40.2,26.6,30.25,SE,124,0.0,0.0,58,0.00,OVC,,0.00,WeatherDisplay:10.37,2013-02-26 15:47:00,
2013-02-26 10:52:00,40.1,26.5,30.25,ESE,102,1.7,4.2,58,0.00,OVC,,0.00,WeatherDisplay:10.37,2013-02-26 15:52:00,
2013-02-26 10:57:00,40.7,26.7,30.25,SE,126,2.3,2.3,57,0.00,OVC,,0.00,WeatherDisplay:10.37,2013-02-26 15:57:00,
2013-02-26 11:02:00,41.0,26.5,30.25,East,79,3.5,0.0,56,0.00,OVC,,0.00,WeatherDisplay:10.37,2013-02-26 16:02:00,
2013-02-26 11:07:00,41.2,26.7,30.25,ESE,106,5.8,5.8,56,0.00,OVC,,0.00,WeatherDisplay:10.37,2013-02-26 16:07:00,
2013-02-26 11:12:00,40.8,25.0,30.25,ESE,107,8.1,8.1,53,0.00,OVC,,0.00,WeatherDisplay:10.37,2013-02-26 16:12:00,
2013-02-26 11:17:00,40.8,25.9,30.25,East,88,5.8,5.8,55,0.00,OVC,,0.00,WeatherDisplay:10.37,2013-02-26 16:17:00,
2013-02-26 11:22:00,40.7,26.2,30.25,NE,41,0.0,0.0,56,0.00,OVC,,0.00,WeatherDisplay:10.37,2013-02-26 16:22:00,
2013-02-26 11:27:00,40.7,26.2,30.24,East,80,4.3,4.3,56,0.00,OVC,,0.00,WeatherDisplay:10.37,2013-02-26 16:27:00,
2013-02-26 11:32:00,40.5,25.2,30.24,ESE,109,4.6,4.6,54,0.00,OVC,,0.00,WeatherDisplay:10.37,2013-02-26 16:32:00,
2013-02-26 11:37:00,40.7,25.4,30.24,ESE,112,4.6,0.0,54,0.00,OVC,,0.00,WeatherDisplay:10.37,2013-02-26 16:37:00,
2013-02-26 11:42:00,41.0,24.7,30.25,East,89,9.2,9.2,52,0.00,OVC,,0.00,WeatherDisplay:10.37,2013-02-26 16:42:00,
2013-02-26 11:47:00,40.7,24.9,30.25,SSE,147,5.0,5.0,53,0.00,OVC,,0.00,WeatherDisplay:10.37,2013-02-26 16:47:00,
2013-02-26 11:53:00,40.8,25.5,30.25,SSE,167,6.9,6.9,54,0.00,OVC,,0.00,WeatherDisplay:10.37,2013-02-26 16:53:00,
2013-02-26 11:58:00,41.1,25.3,30.24,SE,141,5.8,5.8,53,0.00,OVC,,0.00,WeatherDisplay:10.37,2013-02-26 16:58:00,
2013-02-26 12:03:00,40.9,25.6,30.24,SE,136,5.8,5.8,54,0.00,OVC,,0.00,WeatherDisplay:10.37,2013-02-26 17:03:00,
2013-02-26 12:08:00,40.7,25.8,30.24,SSE,147,4.6,4.6,55,0.00,OVC,,0.00,WeatherDisplay:10.37,2013-02-26 17:08:00,
2013-02-26 12:13:00,41.0,25.2,30.24,SSE,157,5.8,5.8,53,0.00,OVC,,0.00,WeatherDisplay:10.37,2013-02-26 17:13:00,
2013-02-26 12:18:00,41.1,24.8,30.24,ESE,103,6.9,6.9,52,0.00,OVC,,0.00,WeatherDisplay:10.37,2013-02-26 17:18:00,
2013-02-26 12:23:00,41.3,25.9,30.24,SSE,164,0.0,0.0,54,0.00,OVC,,0.00,WeatherDisplay:10.37,2013-02-26 17:23:00,
2013-02-26 12:28:00,41.5,25.2,30.23,South,176,6.9,6.9,52,0.00,OVC,,0.00,WeatherDisplay:10.37,2013-02-26 17:28:00,
2013-02-26 12:33:00,41.5,25.7,30.23,ESE,104,4.6,4.6,53,0.00,OVC,,0.00,WeatherDisplay:10.37,2013-02-26 17:33:00,
2013-02-26 12:38:00,41.5,26.1,30.23,East,99,2.3,2.9,54,0.00,OVC,,0.00,WeatherDisplay:10.37,2013-02-26 17:38:00,
2013-02-26 12:43:00,41.1,25.3,30.23,ESE,102,3.9,4.4,53,0.00,OVC,,0.00,WeatherDisplay:10.37,2013-02-26 17:43:00,
2013-02-26 12:48:00,41.2,26.3,30.22,ESE,102,3.5,3.5,55,0.00,OVC,,0.00,WeatherDisplay:10.37,2013-02-26 17:48:00,
2013-02-26 12:53:00,41.2,25.4,30.22,SE,141,9.2,9.2,53,0.00,OVC,,0.00,WeatherDisplay:10.37,2013-02-26 17:53:00,
2013-02-26 12:58:00,41.2,24.9,30.22,SE,136,9.2,9.2,52,0.00,OVC,,0.00,WeatherDisplay:10.37,2013-02-26 17:58:00,
2013-02-26 13:03:00,41.3,25.0,30.21,East,96,7.4,7.4,52,0.00,OVC,,0.00,WeatherDisplay:10.37,2013-02-26 18:03:00,
2013-02-26 13:08:00,41.6,25.8,30.20,ESE,106,6.9,6.9,53,0.00,OVC,,0.00,WeatherDisplay:10.37,2013-02-26 18:08:00,
2013-02-26 13:13:00,41.3,25.9,30.20,SE,136,8.1,8.1,54,0.00,OVC,,0.00,WeatherDisplay:10.37,2013-02-26 18:13:00,
2013-02-26 13:18:00,41.1,25.3,30.20,ESE,117,8.1,8.1,53,0.00,OVC,,0.00,WeatherDisplay:10.37,2013-02-26 18:18:00,
2013-02-26 13:23:00,41.0,25.2,30.20,ESE,110,6.9,6.9,53,0.00,OVC,,0.00,WeatherDisplay:10.37,2013-02-26 18:23:00,
2013-02-26 13:28:00,40.9,25.1,30.20,ESE,113,6.9,6.9,53,0.00,OVC,,0.00,WeatherDisplay:10.37,2013-02-26 18:28:00,
2013-02-26 13:33:00,41.2,25.4,30.20,SE,124,4.9,4.9,53,0.00,OVC,,0.00,WeatherDisplay:10.37,2013-02-26 18:33:00,
2013-02-26 13:38:00,41.3,25.0,30.20,SE,133,5.8,5.8,52,0.00,OVC,,0.00,WeatherDisplay:10.37,2013-02-26 18:38:00,
2013-02-26 13:43:00,41.3,25.0,30.19,SE,144,8.1,8.1,52,0.00,OVC,,0.00,WeatherDisplay:10.37,2013-02-26 18:43:00,
2013-02-26 13:48:00,41.5,26.6,30.19,SE,126,5.0,5.0,55,0.00,OVC,,0.00,WeatherDisplay:10.37,2013-02-26 18:48:00,
2013-02-26 13:53:00,41.2,24.9,30.18,SE,126,4.6,4.6,52,0.00,OVC,,0.00,WeatherDisplay:10.37,2013-02-26 18:53:00,
2013-02-26 13:58:00,41.2,25.8,30.18,SSE,160,5.7,5.7,54,0.00,OVC,,0.00,WeatherDisplay:10.37,2013-02-26 18:58:00,
2013-02-26 14:03:00,40.9,25.6,30.18,SE,143,9.2,9.2,54,0.00,OVC,,0.00,WeatherDisplay:10.37,2013-02-26 19:03:00,
2013-02-26 14:08:00,40.7,25.8,30.18,SE,143,9.2,9.2,55,0.00,OVC,,0.00,WeatherDisplay:10.37,2013-02-26 19:08:00,
2013-02-26 14:13:00,40.6,26.6,30.18,SE,124,8.1,8.1,57,0.00,OVC,,0.00,WeatherDisplay:10.37,2013-02-26 19:13:00,
2013-02-26 14:18:00,40.3,26.3,30.18,SSE,154,9.2,9.2,57,0.00,OVC,,0.00,WeatherDisplay:10.37,2013-02-26 19:18:00,
2013-02-26 14:23:00,40.5,26.5,30.19,SSE,152,4.6,4.6,57,0.00,OVC,,0.00,WeatherDisplay:10.37,2013-02-26 19:23:00,
2013-02-26 14:28:00,40.3,26.3,30.18,SE,144,8.1,8.1,57,0.00,OVC,,0.00,WeatherDisplay:10.37,2013-02-26 19:28:00,
2013-02-26 14:33:00,39.9,26.3,30.18,SSE,160,6.9,6.9,58,0.00,OVC,,0.00,WeatherDisplay:10.37,2013-02-26 19:33:00,
2013-02-26 14:38:00,39.9,26.8,30.19,SE,128,1.2,0.0,59,0.00,OVC,,0.00,WeatherDisplay:10.37,2013-02-26 19:38:00,
2013-02-26 14:43:00,39.8,26.3,30.19,East,97,9.2,9.2,58,0.00,OVC,,0.00,WeatherDisplay:10.37,2013-02-26 19:43:00,
2013-02-26 14:48:00,39.8,26.3,30.19,SE,126,6.9,6.9,58,0.00,OVC,,0.00,WeatherDisplay:10.37,2013-02-26 19:48:00,
2013-02-26 14:53:00,39.5,26.4,30.19,South,171,6.9,6.9,59,0.00,OVC,,0.00,WeatherDisplay:10.37,2013-02-26 19:53:00,
2013-02-26 14:58:00,39.5,26.4,30.19,ESE,116,5.8,5.8,59,0.00,OVC,,0.00,WeatherDisplay:10.37,2013-02-26 19:58:00,
2013-02-26 15:03:00,39.5,26.4,30.19,SE,145,10.4,10.4,59,0.00,OVC,,0.00,WeatherDisplay:10.37,2013-02-26 20:03:00,
2013-02-26 15:08:00,39.2,26.1,30.19,East,100,12.7,12.7,59,0.00,OVC,,0.00,WeatherDisplay:10.37,2013-02-26 20:08:00,
2013-02-26 15:13:00,39.2,26.5,30.19,ESE,119,8.1,8.1,60,0.00,OVC,,0.00,WeatherDisplay:10.37,2013-02-26 20:13:00,
2013-02-26 15:18:00,39.2,26.5,30.19,SE,144,10.4,10.4,60,0.00,OVC,,0.00,WeatherDisplay:10.37,2013-02-26 20:18:00,
2013-02-26 15:23:00,38.9,26.2,30.19,SSE,147,9.6,9.6,60,0.00,OVC,,0.00,WeatherDisplay:10.37,2013-02-26 20:23:00,
2013-02-26 15:28:00,38.9,26.2,30.19,SSE,147,5.8,5.8,60,0.00,OVC,,0.00,WeatherDisplay:10.37,2013-02-26 20:28:00,
2013-02-26 15:33:00,38.9,26.6,30.19,East,88,5.8,5.8,61,0.00,OVC,,0.00,WeatherDisplay:10.37,2013-02-26 20:33:00,
2013-02-26 15:38:00,38.7,26.4,30.19,ESE,114,6.9,6.9,61,0.00,OVC,,0.00,WeatherDisplay:10.37,2013-02-26 20:38:00,
2013-02-26 15:43:00,38.7,26.0,30.19,ESE,107,10.4,10.4,60,0.00,OVC,,0.00,WeatherDisplay:10.37,2013-02-26 20:43:00,
2013-02-26 15:48:00,38.6,26.3,30.19,ESE,107,4.6,4.6,61,0.00,OVC,,0.00,WeatherDisplay:10.37,2013-02-26 20:48:00,
2013-02-26 15:53:00,38.7,26.4,30.18,SSE,160,5.8,5.8,61,0.00,OVC,,0.00,WeatherDisplay:10.37,2013-02-26 20:53:00,
2013-02-26 15:58:00,38.6,26.3,30.18,ESE,112,4.6,4.6,61,0.00,OVC,,0.00,WeatherDisplay:10.37,2013-02-26 20:58:00,
2013-02-26 16:03:00,38.4,26.2,30.17,ESE,123,8.1,8.1,61,0.00,OVC,,0.00,WeatherDisplay:10.37,2013-02-26 21:03:00,
2013-02-26 16:09:00,38.4,25.8,30.17,SE,127,8.1,8.1,60,0.00,OVC,,0.00,WeatherDisplay:10.37,2013-02-26 21:09:00,
2013-02-26 16:14:00,38.5,26.2,30.17,ESE,116,9.2,9.2,61,0.00,OVC,,0.00,WeatherDisplay:10.37,2013-02-26 21:14:00,
2013-02-26 16:19:00,38.5,26.6,30.17,East,89,5.8,5.8,62,0.00,OVC,,0.00,WeatherDisplay:10.37,2013-02-26 21:19:00,
2013-02-26 16:24:00,38.3,26.4,30.17,SE,138,9.2,9.2,62,0.00,OVC,,0.00,WeatherDisplay:10.37,2013-02-26 21:24:00,
2013-02-26 16:29:00,38.1,26.3,30.17,ESE,120,8.1,8.1,62,0.00,OVC,,0.00,WeatherDisplay:10.37,2013-02-26 21:29:00,
2013-02-26 16:34:00,38.1,27.0,30.17,SE,141,9.2,9.2,64,0.00,OVC,,0.00,WeatherDisplay:10.37,2013-02-26 21:34:00,
2013-02-26 16:39:00,37.9,27.6,30.17,SSE,151,6.9,6.9,66,0.00,OVC,,0.00,WeatherDisplay:10.37,2013-02-26 21:39:00,
2013-02-26 16:44:00,38.0,28.0,30.17,SSE,152,1.2,0.0,67,0.00,OVC,,0.00,WeatherDisplay:10.37,2013-02-26 21:44:00,
2013-02-26 16:49:00,37.8,28.2,30.17,ENE,62,8.1,8.1,68,0.00,OVC,,0.00,WeatherDisplay:10.37,2013-02-26 21:49:00,
2013-02-26 16:54:00,37.7,28.5,30.17,East,90,3.5,3.5,69,0.00,OVC,,0.00,WeatherDisplay:10.37,2013-02-26 21:54:00,
2013-02-26 16:59:00,37.5,28.6,30.17,ESE,121,8.1,8.1,70,0.00,OVC,,0.00,WeatherDisplay:10.37,2013-02-26 21:59:00,
2013-02-26 17:04:00,37.3,28.8,30.17,ESE,116,6.9,6.9,71,0.00,OVC,,0.00,WeatherDisplay:10.37,2013-02-26 22:04:00,
2013-02-26 17:09:00,37.2,29.0,30.17,ESE,120,5.8,5.8,72,0.00,OVC,,0.00,WeatherDisplay:10.37,2013-02-26 22:09:00,
2013-02-26 17:14:00,37.1,29.6,30.17,SE,140,8.1,8.1,74,0.00,OVC,,0.00,WeatherDisplay:10.37,2013-02-26 22:14:00,
2013-02-26 17:19:00,37.0,29.8,30.17,SE,128,5.8,6.3,75,0.00,OVC,,0.00,WeatherDisplay:10.37,2013-02-26 22:19:00,
2013-02-26 17:24:00,36.9,29.8,30.17,ESE,119,8.1,8.1,75,0.00,OVC,,0.00,WeatherDisplay:10.37,2013-02-26 22:24:00,
2013-02-26 17:29:00,36.5,29.4,30.16,ESE,109,9.2,9.2,75,0.00,OVC,,0.00,WeatherDisplay:10.37,2013-02-26 22:29:00,
2013-02-26 17:34:00,36.4,28.9,30.16,SSE,147,9.2,9.2,74,0.00,OVC,,0.00,WeatherDisplay:10.37,2013-02-26 22:34:00,
2013-02-26 17:39:00,36.3,28.5,30.16,SE,141,9.2,9.2,73,0.00,OVC,,0.00,WeatherDisplay:10.37,2013-02-26 22:39:00,
2013-02-26 17:44:00,36.4,28.9,30.15,East,100,6.9,6.9,74,0.00,OVC,,0.00,WeatherDisplay:10.37,2013-02-26 22:44:00,
2013-02-26 17:49:00,36.4,28.6,30.15,ESE,120,6.9,6.9,73,0.00,OVC,,0.00,WeatherDisplay:10.37,2013-02-26 22:49:00,
2013-02-26 17:54:00,36.4,28.6,30.15,ESE,120,8.1,8.1,73,0.00,OVC,,0.00,WeatherDisplay:10.37,2013-02-26 22:54:00,
2013-02-26 17:59:00,36.3,28.2,30.14,SSE,157,6.9,6.9,72,0.00,OVC,,0.00,WeatherDisplay:10.37,2013-02-26 22:59:00,
2013-02-26 18:04:00,36.2,27.7,30.14,ESE,107,6.9,6.9,71,0.00,OVC,,0.00,WeatherDisplay:10.37,2013-02-26 23:04:00,
2013-02-26 18:09:00,36.3,28.2,30.14,ESE,103,5.2,5.2,72,0.00,OVC,,0.00,WeatherDisplay:10.37,2013-02-26 23:09:00,
2013-02-26 18:14:00,36.1,28.0,30.14,South,171,6.9,6.9,72,0.00,OVC,,0.00,WeatherDisplay:10.37,2013-02-26 23:14:00,
2013-02-26 18:19:00,36.1,28.0,30.15,ESE,103,6.9,6.9,72,0.00,OVC,,0.00,WeatherDisplay:10.37,2013-02-26 23:19:00,
2013-02-26 18:24:00,36.2,28.1,30.15,SSE,150,0.0,0.0,72,0.00,OVC,,0.00,WeatherDisplay:10.37,2013-02-26 23:24:00,
2013-02-26 18:29:00,36.2,28.1,30.16,SE,126,6.9,6.9,72,0.00,OVC,,0.00,WeatherDisplay:10.37,2013-02-26 23:29:00,
2013-02-26 18:34:00,36.1,28.0,30.16,ESE,104,4.6,4.6,72,0.00,OVC,,0.00,WeatherDisplay:10.37,2013-02-26 23:34:00,
2013-02-26 18:39:00,36.1,28.0,30.16,East,85,9.2,9.2,72,0.00,OVC,,0.00,WeatherDisplay:10.37,2013-02-26 23:39:00,
2013-02-26 18:44:00,36.0,27.9,30.16,SE,134,5.8,5.8,72,0.00,OVC,,0.00,WeatherDisplay:10.37,2013-02-26 23:44:00,
2013-02-26 18:49:00,36.1,28.0,30.17,SE,141,5.8,5.8,72,0.00,OVC,,0.00,WeatherDisplay:10.37,2013-02-26 23:49:00,
2013-02-26 18:54:00,36.0,27.9,30.16,ESE,119,8.1,8.1,72,0.00,OVC,,0.00,WeatherDisplay:10.37,2013-02-26 23:54:00,
2013-02-26 18:59:00,36.0,28.2,30.16,ESE,110,10.8,10.8,73,0.00,OVC,,0.00,WeatherDisplay:10.37,2013-02-26 23:59:00,
2013-02-26 19:04:00,35.8,27.0,30.15,ESE,117,12.7,12.7,70,0.00,BKN,,0.00,WeatherDisplay:10.37,2013-02-27 00:04:00,
2013-02-26 19:09:00,35.8,27.0,30.15,ESE,103,8.1,8.1,70,0.00,BKN,,0.00,WeatherDisplay:10.37,2013-02-27 00:09:00,
2013-02-26 19:14:00,35.7,26.9,30.15,ESE,106,6.9,6.9,70,0.00,BKN,,0.00,WeatherDisplay:10.37,2013-02-27 00:14:00,
2013-02-26 19:19:00,35.5,26.0,30.14,ESE,114,9.2,9.2,68,0.00,BKN,,0.00,WeatherDisplay:10.37,2013-02-27 00:19:00,
2013-02-26 19:24:00,35.5,26.7,30.14,ESE,112,5.8,5.8,70,0.00,BKN,,0.00,WeatherDisplay:10.37,2013-02-27 00:24:00,
2013-02-26 19:29:00,35.6,26.1,30.14,ESE,120,6.9,6.9,68,0.00,BKN,,0.00,WeatherDisplay:10.37,2013-02-27 00:29:00,
2013-02-26 19:34:00,35.6,26.1,30.14,SE,126,6.9,6.9,68,0.00,BKN,,0.00,WeatherDisplay:10.37,2013-02-27 00:34:00,
2013-02-26 19:39:00,35.5,25.7,30.14,SE,141,6.9,6.9,67,0.00,BKN,,0.00,WeatherDisplay:10.37,2013-02-27 00:39:00,
2013-02-26 19:44:00,35.5,26.4,30.14,East,99,6.9,6.9,69,0.00,BKN,,0.00,WeatherDisplay:10.37,2013-02-27 00:44:00,
2013-02-26 19:49:00,35.5,26.0,30.14,East,80,4.6,4.6,68,0.00,BKN,,0.00,WeatherDisplay:10.37,2013-02-27 00:49:00,
2013-02-26 19:54:00,35.4,25.6,30.14,East,82,6.9,6.9,67,0.00,BKN,,0.00,WeatherDisplay:10.37,2013-02-27 00:54:00,
2013-02-26 19:59:00,35.3,25.1,30.14,ESE,102,9.2,9.2,66,0.00,BKN,,0.00,WeatherDisplay:10.37,2013-02-27 00:59:00,
2013-02-26 20:04:00,35.2,25.4,30.14,ESE,112,9.2,9.2,67,0.00,BKN,,0.00,WeatherDisplay:10.37,2013-02-27 01:04:00,
2013-02-26 20:09:00,35.3,24.7,30.14,SSE,148,10.4,10.4,65,0.00,BKN,,0.00,WeatherDisplay:10.37,2013-02-27 01:09:00,
2013-02-26 20:14:00,35.3,24.7,30.14,ESE,109,9.2,9.2,65,0.00,BKN,,0.00,WeatherDisplay:10.37,2013-02-27 01:14:00,
2013-02-26 20:19:00,35.3,25.1,30.14,East,86,8.6,8.6,66,0.00,BKN,,0.00,WeatherDisplay:10.37,2013-02-27 01:19:00,
2013-02-26 20:24:00,35.0,24.5,30.13,East,96,10.4,10.4,65,0.00,BKN,,0.00,WeatherDisplay:10.37,2013-02-27 01:24:00,
2013-02-26 20:29:00,35.1,24.9,30.12,East,95,9.3,9.3,66,0.00,BKN,,0.00,WeatherDisplay:10.37,2013-02-27 01:29:00,
2013-02-26 20:34:00,35.1,24.5,30.11,ESE,110,11.5,11.5,65,0.00,BKN,,0.00,WeatherDisplay:10.37,2013-02-27 01:34:00,
2013-02-26 20:39:00,34.9,24.7,30.11,SE,126,9.2,9.2,66,0.00,BKN,,0.00,WeatherDisplay:10.37,2013-02-27 01:39:00,
2013-02-26 20:44:00,35.0,24.8,30.11,ESE,107,8.1,8.1,66,0.00,BKN,,0.00,WeatherDisplay:10.37,2013-02-27 01:44:00,
2013-02-26 20:49:00,34.9,25.1,30.11,East,92,9.2,9.2,67,0.00,BKN,,0.00,WeatherDisplay:10.37,2013-02-27 01:49:00,
2013-02-26 20:54:00,34.8,24.6,30.10,ESE,114,10.4,10.4,66,0.00,BKN,,0.00,WeatherDisplay:10.37,2013-02-27 01:54:00,
2013-02-26 20:59:00,34.8,24.6,30.10,ESE,113,13.8,13.8,66,0.00,BKN,,0.00,WeatherDisplay:10.37,2013-02-27 01:59:00,
2013-02-26 21:04:00,34.8,25.7,30.10,East,89,9.2,9.2,69,0.00,-RA,,0.00,WeatherDisplay:10.37,2013-02-27 02:04:00,
2013-02-26 21:09:00,34.6,25.2,30.09,SE,128,15.0,15.0,68,0.00,-RA,,0.00,WeatherDisplay:10.37,2013-02-27 02:09:00,
2013-02-26 21:15:00,34.7,26.0,30.09,ESE,119,9.2,9.2,70,0.00,-RA,,0.00,WeatherDisplay:10.37,2013-02-27 02:15:00,
2013-02-26 21:20:00,34.6,26.2,30.09,ESE,107,8.1,8.1,71,0.00,-RA,,0.00,WeatherDisplay:10.37,2013-02-27 02:20:00,
2013-02-26 21:25:00,34.5,25.8,30.09,ESE,113,10.4,10.4,70,0.00,-RA,,0.00,WeatherDisplay:10.37,2013-02-27 02:25:00,
2013-02-26 21:31:00,34.4,26.3,30.08,ESE,113,9.2,9.2,72,0.00,-RA,,0.00,WeatherDisplay:10.37,2013-02-27 02:31:00,
2013-02-26 21:36:00,34.3,26.6,30.07,East,93,11.5,11.5,73,0.00,-RA,,0.00,WeatherDisplay:10.37,2013-02-27 02:36:00,
2013-02-26 21:41:00,34.1,26.1,30.07,ENE,76,17.3,17.3,72,0.00,-RA,,0.00,WeatherDisplay:10.37,2013-02-27 02:41:00,
2013-02-26 21:46:00,34.3,26.2,30.07,ESE,123,15.0,15.0,72,0.00,-RA,,0.00,WeatherDisplay:10.37,2013-02-27 02:46:00,
2013-02-26 21:51:00,34.2,25.8,30.07,ESE,107,13.8,13.8,71,0.00,-RA,,0.00,WeatherDisplay:10.37,2013-02-27 02:51:00,
2013-02-26 21:56:00,34.1,25.7,30.07,ESE,107,16.1,16.1,71,0.00,-RA,,0.00,WeatherDisplay:10.37,2013-02-27 02:56:00,
2013-02-26 22:01:00,34.2,26.8,30.06,ESE,114,16.1,16.1,74,0.00,-RA,,0.00,WeatherDisplay:10.37,2013-02-27 03:01:00,
2013-02-26 22:06:00,33.9,26.5,30.06,ESE,120,9.2,9.2,74,0.00,-RA,,0.00,WeatherDisplay:10.37,2013-02-27 03:06:00,
2013-02-26 22:11:00,33.8,26.4,30.06,East,100,16.1,16.1,74,0.00,-RA,,0.00,WeatherDisplay:10.37,2013-02-27 03:11:00,
2013-02-26 22:16:00,33.9,26.8,30.06,ESE,103,12.7,12.7,75,0.00,-RA,,0.00,WeatherDisplay:10.37,2013-02-27 03:16:00,
2013-02-26 22:21:00,33.7,26.7,30.06,SSE,151,11.5,11.5,75,0.00,-RA,,0.00,WeatherDisplay:10.37,2013-02-27 03:21:00,
2013-02-26 22:26:00,33.5,27.1,30.05,SE,124,12.7,12.7,77,0.00,-RA,,0.00,WeatherDisplay:10.37,2013-02-27 03:26:00,
2013-02-26 22:31:00,33.4,27.3,30.04,SE,124,13.8,13.8,78,0.00,-RA,,0.00,WeatherDisplay:10.37,2013-02-27 03:31:00,
2013-02-26 22:36:00,33.5,27.7,30.05,ESE,103,10.4,10.4,79,0.00,-RA,,0.00,WeatherDisplay:10.37,2013-02-27 03:36:00,
2013-02-26 22:42:00,33.3,27.8,30.05,SE,124,9.2,9.2,80,0.00,-RA,,0.00,WeatherDisplay:10.37,2013-02-27 03:42:00,
2013-02-26 22:48:00,33.4,28.2,30.05,ESE,110,11.5,11.5,81,0.01,-RA,,0.01,WeatherDisplay:10.37,2013-02-27 03:48:00,
2013-02-26 22:53:00,33.2,28.6,30.05,ESE,123,9.2,9.2,83,0.01,-RA,,0.01,WeatherDisplay:10.37,2013-02-27 03:53:00,
2013-02-26 22:58:00,33.1,28.8,30.04,ESE,123,10.4,10.4,84,0.02,-RA,,0.02,WeatherDisplay:10.37,2013-02-27 03:58:00,
2013-02-26 23:03:00,33.0,29.0,30.04,ESE,119,12.7,12.7,85,0.03,-RA,,0.03,WeatherDisplay:10.37,2013-02-27 04:03:00,
2013-02-26 23:08:00,32.9,29.2,30.03,ESE,121,11.5,11.5,86,0.03,-RA,,0.04,WeatherDisplay:10.37,2013-02-27 04:08:00,
2013-02-26 23:13:00,33.0,29.6,30.03,East,90,8.1,8.1,87,0.04,-RA,,0.04,WeatherDisplay:10.37,2013-02-27 04:13:00,
2013-02-26 23:18:00,32.7,29.6,30.03,ESE,116,9.2,9.2,88,0.05,-RA,,0.05,WeatherDisplay:10.37,2013-02-27 04:18:00,
2013-02-26 23:23:00,32.9,30.3,30.03,East,99,8.1,8.1,90,0.06,-RA,,0.06,WeatherDisplay:10.37,2013-02-27 04:23:00,
2013-02-26 23:28:00,32.7,30.1,30.02,SE,127,10.4,10.4,90,0.07,-RA,,0.07,WeatherDisplay:10.37,2013-02-27 04:28:00,
2013-02-26 23:33:00,32.8,30.2,30.02,ESE,106,7.6,7.6,90,0.08,RA,,0.08,WeatherDisplay:10.37,2013-02-27 04:33:00,
2013-02-26 23:38:00,32.8,30.5,30.02,SE,126,6.9,6.9,91,0.08,RA,,0.08,WeatherDisplay:10.37,2013-02-27 04:38:00,
2013-02-26 23:43:00,32.6,30.3,30.00,ESE,114,9.2,9.2,91,0.08,RA,,0.09,WeatherDisplay:10.37,2013-02-27 04:43:00,
2013-02-26 23:48:00,32.6,30.6,29.99,SE,126,9.2,9.2,92,0.08,RA,,0.09,WeatherDisplay:10.37,2013-02-27 04:48:00,
2013-02-26 23:53:00,32.5,30.5,29.99,SE,131,15.0,15.0,92,0.08,OVC,,0.09,WeatherDisplay:10.37,2013-02-27 04:53:00,
2013-02-26 23:59:00,32.5,30.2,29.99,ESE,109,8.1,8.1,91,0.08,RA,,0.10,WeatherDisplay:10.37,2013-02-27 04:59:00,